30.06.2024;15:00;6
30.06.2024;14:00;6
30.06.2024;13:00;7
30.06.2024;12:00;11
30.06.2024;11:00;14
30.06.2024;10:00;19
30.06.2024;09:00;22
30.06.2024;08:00;22
30.06.2024;07:00;27
30.06.2024;06:00;30
30.06.2024;05:00;28
30.06.2024;04:00;25
30.06.2024;03:00;25
30.06.2024;02:00;25
30.06.2024;01:00;23
30.06.2024;00:00;22
29.06.2024;23:00;18
29.06.2024;22:00;17
29.06.2024;21:00;15
29.06.2024;20:00;15
29.06.2024;19:00;19
29.06.2024;18:00;19
29.06.2024;17:00;16
29.06.2024;16:00;14
29.06.2024;15:00;13
29.06.2024;14:00;11
29.06.2024;13:00;13
29.06.2024;12:00;15
29.06.2024;11:00;17
29.06.2024;10:00;15
29.06.2024;09:00;11
29.06.2024;08:00;9
29.06.2024;07:00;11
29.06.2024;06:00;15
29.06.2024;05:00;18
29.06.2024;04:00;16
29.06.2024;03:00;17
29.06.2024;02:00;18
29.06.2024;01:00;15
29.06.2024;00:00;8
28.06.2024;23:00;8
28.06.2024;22:00;10
28.06.2024;21:00;10
28.06.2024;20:00;10
28.06.2024;19:00;10
28.06.2024;18:00;10
28.06.2024;17:00;10
28.06.2024;16:00;9
